Location: Newark
(58.8333°N, 23.5833°E)
Time: 12:43:22
(UTC+00:00)

Explorer 7 - Pass Details

Date: 17 November 2019
Orbit: 485 x 680 km, 50.3° (Epoch: 14 December)

Event Time Altitude Azimuth Distance (km) Brightness Sun altitude
Rises 02:18:15 0° 251° (WSW) 2,822 - -30.5°
Reaches altitude 10° 02:20:52 10° 239° (WSW) 1,882 - -30.2°
Maximum altitude 02:24:24 25° 183° (S) 1,124 - -29.7°
Exits shadow 02:26:51 15° 136° (SE) 1,503 9.3 -29.4°
Drops below altitude 10° 02:27:46 10° 127° (SE) 1,784 9.9 -29.3°
Sets 02:30:10 0° 114° (ESE) 2,641 11.1 -29.0°
